User: anonymous   Login
Location: Bagnolo San Vito
(45.0833°N, 10.8833°E)
Time: 16:34:19
(UTC+00:00)
Language:

Cosmos 2333 Rocket - Orbit

View from above orbital plane
View from above orbital plane
View from above satellite
View from above satellite

Ground track
Ground track

The orbit data is extracted from the following two-line orbital elements,

1 24298U 96051B   21125.87860274 -.00000189  00000-0 -75674-4 0  9992
2 24298  70.8294 310.7405 0018268 237.1183 122.8180 14.12449717271885
Epoch (UTC): 05 May 2021 21:05:11
Eccentricity: 0.0018268
inclination: 70.8294°
perigee height: 838 km
apogee height: 864 km
right ascension of ascending node: 310.7405°
argument of perigee: 237.1183°
revolutions per day: 14.12449717
mean anomaly at epoch: 122.8180°
orbit number at epoch: 27188

The dashed part of the orbit path shows where the satellite is in the earth's shadow,  

DLR